Location: St Paul
(33.4390°N, 83.7350°W)
Time: 02:13:14
(UTC-04:00)

FREGAT/IRIS - Pass Details

Date: 06 October 2017
Orbit: 379 x 388 km, 97.0° (Epoch: 23 October)

Event Time Altitude Azimuth Distance (km) Brightness Sun altitude
Exits shadow 20:53:53 19° 206° (SSW) 980 4.8 -22.0°
Maximum altitude 20:55:32 35° 261° (W) 642 4.2 -22.3°
Drops below altitude 10° 20:58:20 10° 330° (NNW) 1,414 5.9 -22.9°
Sets 21:00:24 0° 340° (NNW) 2,270 6.9 -23.3°
